| time (UTC) | temp C | wind direction | speed KPH | gust KPH | rain 1hr cm | rain 24hr cm | rain mn cm | humidity % | barometer mb |
| 20260905033335 | 15 | 270 | 4.8 | 6.4 | 0.00 | 0.00 | 0.00 | 84 | 1026.0 |
| 20260905031418 | 15 | 225 | 3.2 | 4.8 | 0.00 | 0.00 | 0.00 | 83 | 1025.8 |
| 20260905030420 | 15 | 225 | 4.8 | 8.0 | 0.00 | 0.00 | 0.00 | 83 | 1025.7 |
| 20260905025518 | 15 | 225 | 4.8 | 6.4 | 0.00 | 0.00 | 0.00 | 85 | 1025.7 |
| 20260905024520 | 15 | 225 | 6.4 | 8.0 | 0.00 | 0.00 | 0.00 | 86 | 1025.7 |
| 20260905023522 | 15 | 225 | 4.8 | 6.4 | 0.00 | 0.00 | 0.00 | 85 | 1025.8 |
| 20260905021522 | 15 | 270 | 1.6 | 3.2 | 0.00 | 0.00 | 0.00 | 85 | 1025.7 |
| 20260905020619 | 15 | 270 | 3.2 | 3.2 | 0.00 | 0.00 | 0.00 | 83 | 1025.6 |
| 20260905014720 | 17 | 270 | 8.0 | 9.7 | 0.00 | 0.00 | 0.00 | 74 | 1025.4 |
| 20260905013719 | 16 | 180 | 0.0 | 0.0 | 0.00 | 0.00 | 0.00 | 74 | 1025.3 |
| 20260905012819 | 16 | 225 | 3.2 | 4.8 | 0.00 | 0.00 | 0.00 | 74 | 1025.4 |
| 20260905011820 | 16 | 225 | 4.8 | 6.4 | 0.00 | 0.00 | 0.00 | 74 | 1025.1 |
| 20260905010819 | 16 | 225 | 6.4 | 8.0 | 0.00 | 0.00 | 0.00 | 74 | 1025.2 |
| 20260905005821 | 16 | 225 | 6.4 | 9.7 | 0.00 | 0.00 | 0.00 | 76 | 1025.2 |
| 20260905004822 | 16 | 235 | 8.0 | 12.9 | 0.00 | 0.00 | 0.00 | 79 | 1025.3 |
| 20260905003820 | 16 | 254 | 8.0 | 11.3 | 0.00 | 0.00 | 0.00 | 79 | 1025.2 |
| 20260905001820 | 16 | 225 | 6.4 | 8.0 | 0.00 | 0.00 | 0.00 | 75 | 1024.9 |
| 20260904235820 | 15 | 243 | 8.0 | 9.7 | 0.00 | 0.00 | 0.00 | 79 | 1024.9 |
| 20260904234820 | 15 | 241 | 6.4 | 9.7 | 0.00 | 0.00 | 0.00 | 77 | 1025.0 |
| 20260904233820 | 15 | 199 | 1.6 | 6.4 | 0.00 | 0.00 | 0.00 | 79 | 1025.0 |
| 20260904232818 | 15 | 206 | 8.0 | 12.9 | 0.00 | 0.00 | 0.00 | 80 | 1025.0 |
| 20260904231818 | 15 | 217 | 8.0 | 11.3 | 0.00 | 0.00 | 0.00 | 82 | 1024.9 |
| 20260904230820 | 15 | 191 | 4.8 | 12.9 | 0.00 | 0.00 | 0.00 | 85 | 1024.8 |
| 20260904225823 | 16 | 190 | 1.6 | 8.0 | 0.00 | 0.00 | 0.00 | 86 | 1024.9 |
| 20260904224820 | 16 | 218 | 3.2 | 8.0 | 0.00 | 0.00 | 0.00 | 86 | 1024.8 |
| 20260904223918 | 16 | 232 | 9.7 | 11.3 | 0.00 | 0.00 | 0.00 | 86 | 1024.8 |
| 20260904223821 | 16 | 236 | 8.0 | 9.7 | 0.00 | 0.00 | 0.00 | 86 | 1024.6 |
| 20260904222919 | 16 | 225 | 4.8 | 6.4 | 0.00 | 0.00 | 0.00 | 84 | 1024.6 |
| 20260904221921 | 16 | 204 | 3.2 | 4.8 | 0.00 | 0.00 | 0.00 | 83 | 1024.4 |
| 20260904220920 | 16 | 202 | 0.0 | 0.0 | 0.00 | 0.00 | 0.00 | 83 | 1024.2 |
| 20260904220822 | 16 | 202 | 0.0 | 3.2 | 0.00 | 0.00 | 0.00 | 83 | 1024.3 |
| 20260904215821 | 16 | 180 | 0.0 | 0.0 | 0.00 | 0.00 | 0.00 | 83 | 1024.2 |
| 20260904214818 | 16 | 201 | 4.8 | 6.4 | 0.00 | 0.00 | 0.00 | 86 | 1024.2 |
| 20260904213819 | 16 | 202 | 3.2 | 4.8 | 0.00 | 0.00 | 0.00 | 88 | 1024.3 |
| 20260904210918 | 15 | 225 | 6.4 | 8.0 | 0.00 | 0.00 | 0.00 | 87 | 1024.1 |
| 20260904203919 | 16 | 180 | 1.6 | 3.2 | 0.00 | 0.00 | 0.00 | 76 | 1023.9 |
| 20260904202921 | 17 | 225 | 4.8 | 6.4 | 0.00 | 0.00 | 0.00 | 73 | 1023.8 |
| 20260904201020 | 17 | 292 | 4.8 | 6.4 | 0.00 | 0.00 | 0.00 | 71 | 1024.0 |
| 20260904200021 | 17 | 45 | 0.0 | 0.0 | 0.00 | 0.00 | 0.00 | 71 | 1024.0 |
| 20260904194121 | 17 | 45 | 0.0 | 1.6 | 0.00 | 0.00 | 0.00 | 71 | 1024.1 |
| 20260904193219 | 17 | 45 | 6.4 | 8.0 | 0.00 | 0.00 | 0.00 | 71 | 1024.3 |
| 20260904192219 | 17 | 24 | 4.8 | 8.0 | 0.00 | 0.00 | 0.00 | 70 | 1024.3 |
| 20260904191220 | 16 | 45 | 3.2 | 4.8 | 0.00 | 0.00 | 0.00 | 73 | 1024.3 |
| 20260904190218 | 16 | 67 | 0.0 | 0.0 | 0.00 | 0.00 | 0.00 | 73 | 1024.4 |
| 20260904185221 | 16 | 45 | 0.0 | 1.6 | 0.00 | 0.00 | 0.00 | 72 | 1024.5 |
| 20260904184219 | 16 | 45 | 6.4 | 8.0 | 0.00 | 0.00 | 0.00 | 74 | 1024.4 |
| 20260904183218 | 16 | 45 | 6.4 | 8.0 | 0.00 | 0.00 | 0.00 | 75 | 1024.4 |
| 20260904182219 | 15 | 45 | 8.0 | 8.0 | 0.00 | 0.00 | 0.00 | 77 | 1024.4 |
| 20260904181247 | 15 | 45 | 8.0 | 9.7 | 0.00 | 0.00 | 0.00 | 77 | 1024.4 |
| 20260904180319 | 15 | 40 | 8.0 | 11.3 | 0.00 | 0.00 | 0.00 | 77 | 1024.3 |
| 20260904174420 | 15 | 45 | 6.4 | 9.7 | 0.00 | 0.00 | 0.00 | 80 | 1024.4 |
| 20260904173419 | 14 | 22 | 3.2 | 4.8 | 0.00 | 0.00 | 0.00 | 81 | 1024.4 |
| 20260904172419 | 14 | 45 | 6.4 | 6.4 | 0.00 | 0.00 | 0.00 | 82 | 1024.3 |
| 20260904171419 | 13 | 45 | 8.0 | 9.7 | 0.00 | 0.00 | 0.00 | 84 | 1024.4 |
| 20260904165421 | 13 | 45 | 9.7 | 14.5 | 0.00 | 0.00 | 0.00 | 85 | 1024.4 |
| 20260904164518 | 13 | 45 | 14.5 | 19.3 | 0.00 | 0.00 | 0.00 | 88 | 1024.3 |
| 20260904164420 | 13 | 40 | 11.3 | 16.1 | 0.00 | 0.00 | 0.00 | 89 | 1024.2 |
| 20260904163420 | 13 | 67 | 0.0 | 0.0 | 0.00 | 0.00 | 0.00 | 89 | 1024.4 |
| 20260904162518 | 13 | 67 | 3.2 | 8.0 | 0.00 | 0.00 | 0.00 | 90 | 1024.4 |
| 20260904161520 | 12 | 45 | 1.6 | 6.4 | 0.00 | 0.00 | 0.00 | 91 | 1024.6 |
| 20260904160619 | 12 | 112 | 0.0 | 0.0 | 0.00 | 0.00 | 0.00 | 91 | 1024.6 |
| 20260904155621 | 12 | 112 | 0.0 | 0.0 | 0.00 | 0.00 | 0.00 | 92 | 1024.5 |
| 20260904153719 | 12 | 67 | 1.6 | 3.2 | 0.00 | 0.00 | 0.00 | 92 | 1024.4 |
| 20260904152719 | 12 | 67 | 3.2 | 4.8 | 0.00 | 0.00 | 0.00 | 92 | 1024.4 |
| 20260904151818 | 12 | 45 | 0.0 | 0.0 | 0.00 | 0.00 | 0.00 | 92 | 1024.4 |
| 20260904150819 | 11 | 45 | 0.0 | 0.0 | 0.00 | 0.00 | 0.00 | 92 | 1024.2 |
| 20260904145819 | 11 | 45 | 1.6 | 4.8 | 0.00 | 0.00 | 0.00 | 93 | 1024.1 |
| 20260904143918 | 11 | 90 | 1.6 | 3.2 | 0.00 | 0.00 | 0.00 | 94 | 1024.1 |
| 20260904142922 | 11 | 90 | 4.8 | 4.8 | 0.00 | 0.00 | 0.00 | 93 | 1024.0 |
| 20260904142019 | 11 | 67 | 0.0 | 1.6 | 0.00 | 0.00 | 0.00 | 94 | 1023.8 |
| 20260904141021 | 11 | 45 | 3.2 | 4.8 | 0.00 | 0.00 | 0.00 | 94 | 1023.7 |
| 20260904140120 | 11 | 67 | 1.6 | 4.8 | 0.00 | 0.00 | 0.00 | 94 | 1023.6 |
| 20260904135122 | 11 | 67 | 0.0 | 0.0 | 0.00 | 0.00 | 0.00 | 94 | 1023.5 |
| 20260904135020 | 11 | 67 | 0.0 | 0.0 | 0.00 | 0.00 | 0.00 | 93 | 1023.5 |
| 20260904134021 | 11 | 67 | 1.6 | 3.2 | 0.00 | 0.00 | 0.00 | 93 | 1023.4 |
| 20260904133118 | 11 | 67 | 1.6 | 4.8 | 0.00 | 0.00 | 0.00 | 93 | 1023.3 |
| 20260904131219 | 11 | 67 | 1.6 | 1.6 | 0.00 | 0.00 | 0.00 | 94 | 1023.1 |
| 20260904130245 | 11 | 67 | 1.6 | 4.8 | 0.00 | 0.00 | 0.00 | 94 | 1022.9 |
| 20260904130042 | 11 | 67 | 3.2 | 4.8 | 0.00 | 0.00 | 0.00 | 94 | 1022.9 |
| 20260904125633 | 11 | 67 | 1.6 | 3.2 | 0.00 | 0.00 | 0.00 | 94 | 1023.0 |
| 20260904123721 | 11 | 360 | 0.0 | 1.6 | 0.00 | 0.00 | 0.00 | 93 | 1022.9 |
| 20260904122819 | 11 | 360 | 0.0 | 0.0 | 0.00 | 0.00 | 0.00 | 95 | 1022.9 |
| 20260904120820 | 11 | 360 | 0.0 | 0.0 | 0.00 | 0.00 | 0.00 | 95 | 1022.9 |
| 20260904115819 | 11 | 360 | 0.0 | 0.0 | 0.00 | 0.00 | 0.00 | 94 | 1022.8 |
| 20260904115720 | 11 | 360 | 0.0 | 0.0 | 0.00 | 0.00 | 0.00 | 93 | 1022.8 |
| 20260904114719 | 11 | 360 | 0.0 | 0.0 | 0.00 | 0.00 | 0.00 | 94 | 1022.8 |
| 20260904112918 | 12 | 360 | 0.0 | 0.0 | 0.00 | 0.00 | 0.00 | 92 | 1022.4 |
| 20260904112820 | 12 | 360 | 0.0 | 0.0 | 0.00 | 0.00 | 0.00 | 92 | 1022.5 |
| 20260904111821 | 11 | 338 | 4.8 | 9.7 | 0.00 | 0.00 | 0.00 | 94 | 1022.6 |
| 20260904110819 | 11 | 360 | 3.2 | 8.0 | 0.00 | 0.00 | 0.00 | 93 | 1022.4 |
| 20260904105918 | 11 | 360 | 1.6 | 6.4 | 0.00 | 0.00 | 0.00 | 94 | 1022.4 |
| 20260904104920 | 11 | 10 | 6.4 | 9.7 | 0.00 | 0.00 | 0.00 | 95 | 1022.2 |
| 20260904103920 | 11 | 22 | 0.0 | 1.6 | 0.00 | 0.00 | 0.00 | 95 | 1022.2 |
| 20260904101919 | 11 | 45 | 1.6 | 3.2 | 0.00 | 0.00 | 0.00 | 94 | 1022.1 |
| 20260904095919 | 11 | 45 | 0.0 | 3.2 | 0.00 | 0.00 | 0.00 | 94 | 1022.0 |
| 20260904093921 | 11 | 45 | 0.0 | 0.0 | 0.00 | 0.00 | 0.00 | 94 | 1022.0 |
| 20260904093019 | 11 | 45 | 0.0 | 0.0 | 0.00 | 0.00 | 0.00 | 94 | 1021.8 |
| 20260904092022 | 11 | 45 | 0.0 | 0.0 | 0.00 | 0.00 | 0.00 | 95 | 1021.8 |
| 20260904091921 | 11 | 45 | 0.0 | 0.0 | 0.00 | 0.00 | 0.00 | 95 | 1021.7 |
| 20260904091019 | 11 | 45 | 0.0 | 0.0 | 0.00 | 0.00 | 0.00 | 93 | 1021.7 |
| 20260904085118 | 11 | 45 | 0.0 | 0.0 | 0.00 | 0.00 | 0.00 | 94 | 1021.7 |
| 20260904083120 | 11 | 45 | 4.8 | 6.4 | 0.00 | 0.00 | 0.00 | 94 | 1021.7 |
| 20260904082119 | 11 | 67 | 0.0 | 0.0 | 0.00 | 0.00 | 0.00 | 94 | 1021.7 |
| 20260904081121 | 11 | 337 | 0.0 | 0.0 | 0.00 | 0.00 | 0.00 | 92 | 1021.7 |
| 20260904080219 | 11 | 337 | 0.0 | 0.0 | 0.00 | 0.00 | 0.00 | 93 | 1021.8 |
| 20260904075219 | 12 | 337 | 0.0 | 0.0 | 0.00 | 0.00 | 0.00 | 93 | 1021.7 |
| 20260904074218 | 12 | 337 | 0.0 | 0.0 | 0.00 | 0.00 | 0.00 | 91 | 1021.7 |
| 20260904073221 | 12 | 337 | 0.0 | 0.0 | 0.00 | 0.00 | 0.00 | 91 | 1021.8 |
| 20260904072221 | 12 | 337 | 0.0 | 1.6 | 0.00 | 0.00 | 0.00 | 92 | 1021.7 |
| 20260904071319 | 12 | 360 | 0.0 | 0.0 | 0.00 | 0.00 | 0.00 | 92 | 1021.8 |
| 20260904070320 | 12 | 8 | 0.0 | 4.8 | 0.00 | 0.00 | 0.00 | 92 | 1021.8 |
| 20260904065330 | 12 | 360 | 0.0 | 0.0 | 0.00 | 0.00 | 0.00 | 90 | 1021.7 |
| 20260904065230 | 12 | 360 | 0.0 | 0.0 | 0.00 | 0.00 | 0.00 | 90 | 1021.7 |
| 20260904064232 | 12 | 337 | 0.0 | 0.0 | 0.00 | 0.00 | 0.00 | 92 | 1021.8 |
| 20260904063330 | 12 | 337 | 0.0 | 0.0 | 0.00 | 0.00 | 0.00 | 91 | 1021.7 |
| 20260904062331 | 12 | 337 | 4.8 | 6.4 | 0.00 | 0.00 | 0.00 | 89 | 1021.7 |
| 20260904062230 | 12 | 337 | 6.4 | 12.9 | 0.00 | 0.00 | 0.00 | 89 | 1021.7 |
| 20260904060329 | 13 | 315 | 8.0 | 12.9 | 0.00 | 0.00 | 0.00 | 87 | 1021.6 |
| 20260904055329 | 12 | 325 | 6.4 | 9.7 | 0.00 | 0.00 | 0.00 | 88 | 1021.7 |
| 20260904055227 | 12 | 337 | 4.8 | 11.3 | 0.00 | 0.00 | 0.00 | 88 | 1021.8 |
| 20260904054228 | 12 | 344 | 3.2 | 11.3 | 0.00 | 0.00 | 0.00 | 88 | 1021.7 |
| 20260904053328 | 12 | 343 | 3.2 | 14.5 | 0.00 | 0.00 | 0.00 | 88 | 1021.5 |
| 20260904052329 | 12 | 330 | 8.0 | 12.9 | 0.00 | 0.00 | 0.00 | 89 | 1021.5 |
| 20260904051428 | 12 | 339 | 0.0 | 11.3 | 0.00 | 0.00 | 0.00 | 89 | 1021.6 |
| 20260904045429 | 12 | 22 | 6.4 | 6.4 | 0.00 | 0.00 | 0.00 | 90 | 1021.7 |
| 20260904044429 | 12 | 360 | 8.0 | 11.3 | 0.00 | 0.00 | 0.00 | 91 | 1021.5 |
| 20260904043429 | 13 | 360 | 6.4 | 9.7 | 0.00 | 0.00 | 0.00 | 90 | 1021.5 |
| 20260904042429 | 13 | 360 | 1.6 | 6.4 | 0.00 | 0.00 | 0.00 | 92 | 1021.6 |
| 20260904040430 | 13 | 6 | 8.0 | 12.9 | 0.00 | 0.00 | 0.00 | 92 | 1021.5 |
| 20260904035430 | 13 | 360 | 12.9 | 14.5 | 0.00 | 0.00 | 0.00 | 93 | 1021.5 |